RH
49 50 47 46 46 45 42 39 37 35 35 35 32 27 26 30 32 33 33 33 33 34 33 31 30 30 29 28 27 27 23 19 19 20 19 17 16 16 18 18 18 18 17 18 18 19 19 19 18 19 20 22 23 24 27 30 32 33 33 32 30 28 27 27 29 31 33 35 34 33 35 36 36 35 33 29 24 21 19 18 17 18 21 24 26
48 49 47 46 47 46 42 39 38 36 35 35 33 29 25 27 30 32 32 32 32 32 32 31 30 30 29 28 27 27 23 19 20 20 19 17 17 18 19 19 19 19 18 19 19 20 20 20 19 19 21 23 23 26 30 35 37 36 34 32 30 28 28 29 31 32 35 37 36 36 38 40 41 40 38 36 32 27 24 23 21 19 19 21 23
47 49 47 48 48 47 44 41 38 36 35 34 33 31 27 26 28 31 32 31 31 31 30 28 29 29 29 28 28 26 21 19 21 19 19 18 18 19 20 20 20 20 19 20 20 21 21 21 20 21 23 25 27 29 34 39 40 37 33 31 28 28 30 32 33 34 36 36 36 36 38 40 41 41 39 37 36 33 30 28 26 24 23 21 21
46 48 48 49 49 47 44 42 39 37 35 33 33 30 28 27 27 29 30 30 30 28 27 27 27 28 28 27 28 24 20 20 21 19 19 19 20 21 21 21 20 20 20 20 21 22 23 23 23 24 26 28 32 35 37 40 40 35 31 31 28 27 29 33 34 35 35 34 34 35 36 38 40 39 38 37 37 35 33 31 30 29 29 26 24
42 46 48 49 48 47 44 42 40 38 36 33 31 28 26 26 27 27 27 27 27 25 25 26 26 27 27 26 25 22 21 21 20 19 20 20 21 22 22 22 21 20 21 22 24 25 26 27 28 29 31 32 35 38 39 39 37 32 29 30 28 27 29 32 33 34 34 34 35 36 37 38 40 40 39 38 37 36 34 32 32 31 32 30 28
40 43 46 48 48 47 45 43 40 39 38 35 32 28 26 26 26 26 26 26 25 25 25 25 26 26 25 24 23 21 21 21 20 21 21 21 22 23 23 22 21 21 23 25 27 29 31 31 31 32 33 34 37 39 38 38 35 31 29 29 28 29 31 31 31 31 32 32 33 35 36 37 39 40 40 39 38 36 35 33 32 32 32 32 31
40 42 45 47 47 46 45 42 41 39 38 37 34 30 27 27 28 28 29 28 27 27 26 26 27 26 25 23 22 22 22 21 21 22 23 23 23 24 23 22 22 23 25 29 31 32 33 33 32 32 32 35 39 40 38 36 32 31 29 28 29 32 33 31 29 28 29 30 31 32 33 34 35 37 38 38 37 36 35 34 33 33 32 32 32
41 42 43 46 46 46 45 42 40 38 37 38 37 32 29 29 30 30 30 29 29 29 28 28 28 27 25 24 23 22 22 21 22 23 24 24 24 24 23 23 24 26 28 32 34 34 34 33 32 31 32 36 40 40 37 33 30 31 30 30 32 33 31 29 27 26 26 27 29 30 31 31 30 31 33 35 36 36 35 34 33 34 34 33 32
42 42 42 45 46 46 46 42 40 38 36 37 36 32 31 32 32 32 31 30 31 30 31 31 31 29 26 25 25 24 22 23 24 24 24 24 25 25 25 26 27 30 32 35 36 34 33 32 32 31 32 37 39 36 33 30 30 30 31 32 32 30 27 25 24 24 24 25 26 27 28 28 27 27 30 32 33 34 34 33 33 34 34 34 34
42 41 42 45 46 47 48 46 43 39 38 37 36 34 34 33 33 33 31 31 30 30 31 32 31 29 28 28 28 25 23 23 24 25 24 25 25 27 27 29 31 33 35 36 35 34 33 33 33 33 34 38 36 33 31 30 29 29 31 33 30 26 24 24 24 24 24 24 24 25 26 27 26 26 28 31 31 32 32 33 34 34 34 33 34
42 41 43 45 46 47 49 49 46 42 41 39 36 36 34 32 32 32 30 30 30 31 32 31 31 29 28 30 30 26 24 24 25 25 24 25 26 29 30 30 32 34 36 35 35 34 33 34 36 37 38 38 35 33 32 29 28 29 32 32 30 26 24 24 24 25 25 25 26 27 28 29 28 28 29 30 31 31 31 30 31 31 32 32 33
42 41 44 45 45 47 48 49 48 46 46 43 39 36 34 34 33 31 31 31 32 33 32 31 30 29 28 30 29 26 24 25 26 25 24 25 28 30 31 32 33 34 36 36 34 33 32 34 37 41 42 40 36 35 33 29 30 31 31 30 29 27 26 26 26 28 30 31 31 31 32 33 33 33 33 32 31 31 29 28 27 28 29 31 32
41 41 43 45 44 44 46 48 48 48 47 45 41 38 36 36 35 34 33 34 34 35 33 31 29 29 29 30 29 26 25 26 26 26 25 26 28 30 32 33 33 34 36 36 33 32 32 33 35 39 43 40 37 38 35 31 32 32 30 28 28 28 29 31 31 33 35 36 36 36 36 37 39 40 40 38 36 34 31 28 27 27 27 29 32
43 44 44 45 43 43 45 47 48 48 49 49 48 45 41 40 39 37 35 34 36 38 38 36 33 30 30 30 29 27 25 27 26 26 25 25 27 30 32 34 34 34 36 35 33 31 33 35 35 37 39 38 37 39 35 32 33 32 30 28 28 31 33 35 36 36 37 39 39 39 40 42 44 45 45 44 43 40 37 33 28 27 27 28 31
46 46 45 44 43 43 45 45 46 46 47 50 53 53 47 43 42 40 37 36 38 41 42 42 39 35 34 32 29 27 25 25 26 25 25 25 28 31 33 35 35 36 36 35 34 34 34 37 39 37 35 36 38 38 35 33 33 31 30 29 29 33 36 38 39 39 40 42 42 43 44 46 47 48 49 48 48 46 44 41 35 30 28 29 29
50 47 43 43 42 42 42 43 45 45 46 47 51 55 49 44 44 43 42 40 39 39 41 42 42 40 39 35 30 26 23 24 25 25 25 26 29 32 34 35 36 37 37 37 36 37 37 37 40 36 32 34 37 37 35 34 32 31 31 31 33 38 40 41 41 41 42 43 44 45 46 47 49 51 51 51 51 50 49 48 43 37 33 30 29
49 46 43 42 42 41 40 42 47 47 47 48 49 51 47 45 46 45 45 43 40 38 40 41 42 41 40 39 33 28 24 23 24 25 26 27 30 33 34 34 35 37 38 37 37 40 39 37 37 33 31 34 37 37 36 34 32 32 33 34 38 40 42 42 42 42 43 44 46 45 46 49 51 54 55 53 53 52 52 54 51 46 41 35 31
48 45 43 42 41 38 38 42 47 47 47 48 48 47 44 45 47 46 45 44 41 39 40 42 44 44 43 41 35 31 28 25 25 25 27 29 31 33 33 33 35 38 39 38 38 41 39 35 32 28 30 35 36 37 36 34 34 35 35 36 39 41 42 43 44 44 44 45 45 46 48 52 52 54 56 55 56 56 55 56 56 53 50 43 35
45 44 42 41 39 37 38 40 42 43 44 46 48 46 44 45 48 48 44 42 42 42 41 41 43 46 45 40 34 33 32 29 27 26 29 30 31 31 31 32 36 39 39 38 39 39 36 32 28 25 30 36 37 38 36 35 36 37 36 36 38 40 42 43 46 46 45 44 43 47 51 53 53 54 56 57 58 58 57 57 58 57 56 52 42
44 43 42 39 37 37 39 39 38 38 40 43 46 45 44 47 49 49 46 44 45 46 44 43 42 43 44 37 32 35 33 32 32 30 32 31 30 30 29 30 35 38 37 36 37 36 32 29 26 26 31 36 37 38 37 36 37 36 35 36 38 40 41 42 44 45 44 43 44 48 52 52 54 55 56 57 59 60 60 60 60 60 59 57 49
44 43 42 38 35 36 37 37 36 36 38 41 44 45 45 47 48 47 48 48 48 47 46 46 42 39 40 34 32 36 33 31 31 32 33 31 29 29 28 29 33 35 33 33 33 33 31 29 30 32 34 36 36 36 35 36 35 34 34 35 37 39 39 39 41 42 43 44 45 48 50 51 54 57 59 59 61 62 61 61 61 62 61 59 53
47 45 45 38 35 37 38 39 38 37 37 39 43 46 46 45 43 43 45 49 49 47 46 46 43 41 41 35 32 35 33 28 27 31 32 30 29 28 28 28 31 33 31 30 31 32 31 30 34 36 35 35 35 35 34 34 33 33 33 35 36 37 37 37 38 39 41 44 46 47 48 50 53 58 62 63 63 62 60 61 61 63 62 58 55
53 50 48 43 40 41 42 43 43 41 38 37 39 41 43 43 43 42 43 47 48 46 46 45 45 48 46 40 36 34 33 28 26 30 32 30 29 28 27 27 30 31 30 29 31 31 30 32 35 34 32 32 33 33 33 34 33 33 33 33 34 35 35 36 36 37 40 43 46 48 48 50 52 58 65 67 66 63 61 62 60 62 63 58 55
58 55 52 48 45 45 46 46 45 44 40 36 36 37 38 40 42 44 44 44 45 43 44 45 49 52 48 44 42 35 31 30 28 29 31 31 29 27 27 27 29 30 29 29 32 31 33 36 33 30 30 30 31 32 33 33 32 32 31 31 32 31 32 33 35 37 39 42 47 50 50 51 52 57 65 67 68 66 64 63 60 61 62 59 55
60 55 53 50 49 47 47 46 44 44 41 35 34 35 35 36 39 42 42 41 42 42 43 44 48 52 49 47 47 38 31 29 29 29 30 31 29 27 27 27 28 28 27 28 34 38 38 36 30 28 29 29 30 31 32 32 33 32 30 30 31 30 29 32 35 36 39 42 47 50 53 53 53 57 63 67 70 71 71 67 60 60 61 58 55
63 58 54 52 51 49 46 44 43 43 41 36 34 34 33 33 34 37 38 39 42 42 41 42 45 49 49 48 48 42 33 28 29 30 31 30 30 28 27 27 27 26 24 27 37 42 37 31 27 28 28 29 30 29 31 32 33 33 31 30 30 29 28 31 35 36 39 42 46 51 54 54 53 58 63 67 72 73 75 71 62 61 61 58 56
66 62 59 54 52 48 44 42 41 42 42 38 37 36 34 33 33 35 37 40 45 46 42 43 45 49 50 47 46 43 35 29 28 31 33 31 30 28 28 28 26 25 24 29 38 41 34 29 27 28 28 29 29 28 29 31 32 34 32 29 28 28 29 32 35 37 39 43 46 50 55 55 53 58 62 66 71 72 75 73 66 63 61 58 57
67 67 63 57 54 50 46 44 42 43 42 40 39 39 37 35 34 35 38 40 46 48 45 48 51 51 50 44 42 41 39 35 30 30 34 33 31 29 29 28 27 25 26 31 37 38 34 31 28 27 28 29 29 28 28 28 31 34 32 30 28 28 29 32 35 37 40 43 46 51 56 54 52 57 63 68 75 77 75 73 70 67 61 58 58
68 68 65 59 56 51 47 46 44 44 43 42 41 40 39 37 35 35 37 39 43 44 44 51 53 51 47 43 41 40 41 39 32 31 33 34 32 30 29 29 28 27 28 31 35 34 33 31 29 27 28 28 28 28 27 28 31 32 32 31 30 29 30 32 35 37 40 43 47 51 55 53 52 57 64 73 81 82 79 77 74 68 61 58 59
68 70 65 57 51 47 45 44 43 44 43 42 41 40 40 39 36 35 37 39 40 41 43 49 49 48 47 45 43 40 38 37 34 34 33 33 34 32 30 30 29 28 28 31 32 30 29 30 28 27 28 28 28 27 27 27 28 30 31 31 31 30 30 32 34 36 40 43 47 51 53 52 53 57 65 76 81 80 81 82 79 70 62 59 60
66 69 65 56 46 41 40 40 40 40 41 41 39 40 40 40 38 35 36 38 40 40 42 47 47 46 48 46 47 43 37 34 34 34 31 32 36 34 31 30 30 29 29 31 29 26 28 29 28 28 29 29 28 28 27 26 26 29 30 30 31 31 31 32 34 37 39 43 47 50 52 52 53 57 64 72 75 78 80 81 80 73 65 62 62
64 68 66 57 46 41 38 37 37 37 38 39 37 37 38 39 39 37 35 36 39 40 40 46 48 48 49 46 49 49 40 33 31 30 29 31 35 35 32 30 31 30 30 30 26 24 27 29 28 28 30 30 29 28 27 26 26 28 29 30 31 30 30 32 34 36 38 44 47 49 52 52 52 57 59 63 71 79 81 80 79 72 67 64 63
60 67 65 54 45 41 38 36 35 34 35 35 33 32 31 32 34 35 36 35 36 38 40 43 46 50 51 45 45 48 43 35 30 28 29 31 34 35 32 30 31 31 30 27 22 22 27 29 29 29 30 30 29 28 27 26 26 27 29 31 30 28 29 32 34 35 38 44 47 50 53 52 51 55 55 57 67 74 77 78 77 74 69 66 64
61 65 59 48 42 39 36 34 34 33 33 31 29 27 26 25 26 29 33 34 34 36 39 40 41 49 56 53 49 51 48 39 32 28 29 30 33 34 31 29 30 30 28 23 19 22 26 29 29 29 30 29 28 28 26 25 26 28 30 29 28 27 28 31 32 34 38 43 47 50 53 53 51 53 50 53 66 71 70 72 76 76 72 69 67
69 66 58 49 41 37 35 34 33 32 31 30 28 26 26 24 23 23 25 29 32 35 38 38 38 43 51 56 55 56 55 44 34 30 28 30 32 32 30 28 27 27 25 20 20 25 29 31 29 28 29 28 27 27 25 25 26 29 29 27 25 25 27 29 31 35 39 42 47 50 53 53 51 51 48 49 62 71 71 72 76 77 75 74 73
72 65 61 56 45 38 37 35 33 31 30 30 30 29 28 26 24 22 21 23 27 31 34 36 37 40 42 47 51 56 57 45 35 32 29 30 32 31 29 27 24 23 21 20 25 30 33 35 31 28 28 26 26 27 25 23 25 27 26 24 23 24 25 27 31 36 39 41 47 50 53 54 51 49 47 47 56 65 69 73 75 79 81 81 79
63 62 59 56 47 41 39 38 36 34 32 32 31 30 30 29 27 25 23 22 23 27 31 32 36 40 38 39 45 51 53 46 38 36 31 30 32 31 28 25 22 21 20 22 29 31 33 36 33 27 26 25 25 26 24 23 25 25 24 25 25 24 25 27 31 36 40 42 47 50 53 55 52 50 47 44 50 57 62 66 67 74 82 83 80
46 52 51 47 44 42 41 40 39 37 35 33 32 31 30 31 30 28 26 23 22 24 28 30 34 41 39 38 42 44 47 46 41 37 33 31 32 31 28 24 21 20 21 26 30 32 34 36 31 26 24 24 24 26 24 25 27 25 25 27 26 25 25 28 32 37 42 44 47 52 55 56 54 52 48 44 45 51 59 62 57 60 71 76 75
33 38 40 40 40 40 40 40 39 38 37 35 32 31 31 32 32 31 29 26 24 23 26 30 34 40 40 37 38 39 42 45 44 41 37 33 31 30 27 24 21 20 23 28 31 32 34 33 27 22 21 22 24 25 25 28 28 26 26 28 28 27 27 29 33 38 44 45 48 54 56 57 56 54 51 47 45 47 55 57 48 47 62 71 72
28 28 29 33 36 36 38 39 38 38 38 37 33 32 32 33 35 34 32 29 27 24 24 29 34 40 42 38 35 40 43 42 43 44 41 36 32 29 27 23 21 21 25 29 31 32 30 26 22 18 20 22 25 26 27 29 28 27 28 30 29 30 30 31 34 39 44 46 49 56 58 58 58 56 53 50 46 43 45 49 42 40 55 70 72
25 25 25 28 30 30 32 35 38 37 37 37 34 32 30 32 34 33 31 31 28 26 25 29 34 40 45 42 37 41 46 45 46 45 41 39 33 28 27 23 21 22 25 28 31 31 27 23 19 18 21 25 28 29 29 30 30 29 31 32 31 30 30 30 32 37 41 45 49 55 59 59 59 58 56 52 47 41 40 43 41 37 47 61 65
24 24 23 24 28 29 26 29 35 37 36 36 34 32 30 29 29 26 26 29 29 27 25 27 34 41 47 47 42 42 46 48 51 48 41 39 34 29 28 24 22 24 27 27 29 32 29 25 21 21 24 28 31 32 31 32 32 31 31 32 32 29 28 27 28 32 36 43 48 52 57 58 58 58 56 53 48 43 39 39 39 36 41 51 55
27 25 24 23 27 32 29 27 31 34 34 33 32 30 27 26 28 27 28 29 28 27 26 27 34 42 47 51 48 43 44 48 52 50 43 40 35 30 29 25 23 26 28 26 28 32 32 29 25 25 28 31 34 35 34 34 33 32 32 31 31 29 27 24 24 26 30 38 46 51 54 55 57 57 54 51 48 44 40 38 37 35 37 44 49
29 27 26 24 24 29 31 29 27 29 31 31 28 24 24 27 29 31 32 30 28 28 29 29 34 40 45 51 51 44 41 45 49 49 46 43 38 33 30 26 25 27 30 27 27 31 33 32 29 28 31 34 37 38 36 35 35 34 34 33 32 30 27 25 25 26 29 34 43 49 51 54 56 55 52 49 47 44 41 39 37 35 35 39 47
31 29 27 25 24 25 29 30 27 25 26 27 26 23 24 29 30 31 33 34 31 30 32 31 33 37 42 48 52 48 42 42 45 46 48 47 41 36 31 28 27 28 30 27 26 30 32 33 32 30 32 36 39 41 39 38 38 37 37 37 34 32 32 30 29 29 31 33 39 44 48 52 55 54 51 48 45 42 40 39 36 34 33 34 46
29 29 28 26 24 24 26 29 30 27 23 22 25 25 24 25 26 29 31 33 31 31 32 31 31 34 38 43 50 52 46 44 45 41 43 48 44 39 34 29 27 28 30 28 26 29 31 32 34 32 33 37 41 43 42 41 41 41 40 40 37 34 35 36 35 33 32 32 35 40 44 49 53 53 51 47 43 39 38 39 35 32 31 31 42
27 27 27 26 24 23 25 28 31 31 26 22 23 26 26 24 23 26 27 28 28 28 28 29 30 34 38 41 49 55 51 47 45 38 39 48 48 42 37 31 28 29 30 28 26 28 31 32 34 34 33 36 40 42 42 42 43 43 43 42 40 38 36 37 38 35 34 33 34 38 41 44 48 50 48 44 41 38 36 37 32 28 29 29 34
27 26 26 25 23 22 24 27 29 31 29 27 26 26 25 23 22 25 27 26 25 23 24 25 30 38 41 43 48 55 56 51 48 42 39 48 51 47 42 35 30 30 31 28 26 29 31 31 34 36 35 34 37 39 41 42 44 44 44 43 42 40 38 38 39 38 37 36 34 35 37 37 41 45 45 42 41 38 35 34 31 27 26 28 31
30 28 27 25 24 22 22 26 28 28 28 30 31 28 25 22 22 24 26 25 24 24 25 27 31 40 44 46 48 52 56 55 53 47 44 50 53 50 46 39 31 31 33 29 26 29 31 31 34 38 37 34 35 38 41 43 44 44 44 45 44 42 41 40 41 42 41 39 37 35 34 34 36 40 41 42 42 38 35 34 30 28 26 26 28
35 32 30 27 26 24 24 27 26 25 27 31 32 31 28 24 21 24 24 23 23 24 27 31 36 42 45 47 48 50 54 57 56 52 49 55 57 52 49 42 33 33 35 32 29 30 32 32 36 39 38 36 36 39 43 44 45 46 46 46 47 46 43 43 44 44 42 41 40 38 35 34 35 37 39 41 41 38 36 35 32 29 28 27 28
38 36 34 32 30 27 28 31 30 27 29 32 32 31 31 27 21 21 22 21 21 23 25 31 38 43 45 48 50 51 53 55 56 53 52 57 58 53 49 43 35 35 37 35 32 33 35 36 39 40 38 36 37 40 44 47 49 49 49 48 48 48 45 45 46 46 44 42 42 41 38 38 37 36 39 40 40 39 36 36 33 31 30 29 29